This demonstration page uses our WeatherBlox Daily Observations layout. Learn more.

38.89511, -77.03637

Hourly Observations for November 25, 2017

Temp ( °F °C ) Dew Point ( °F °C ) Humidity (%) Winds ( mph kmh ) Pressure ( in mb ) Visibility ( mi km ) Precip ( " mm )
12:52 am 00:52 Clear 40 4.4 34 1.1 79 79 SSW 6 9 29.91 1013 10 16.09344 0 0
1:52 am 01:52 Clear 39 3.9 35 1.7 86 86 S 8 13 29.88 1012 10 16.09344 0 0
2:52 am 02:52 Clear 40 4.4 35 1.7 83 83 SW 5 7 29.88 1012 10 16.09344 0 0
3:52 am 03:52 Clear 39 3.9 35 1.7 86 86 SW 3 6 29.85 1011 10 16.09344 0 0
4:52 am 04:52 Mostly Cloudy 40 4.4 37 2.8 89 89 SSW 8 13 29.85 1011 10 16.09344 0 0
5:52 am 05:52 Mostly Clear 39 3.9 35 1.7 86 86 S 6 9 29.83 1010 10 16.09344 0 0
6:52 am 06:52 Partly Cloudy 40 4.4 35 1.7 83 83 SSW 6 9 29.83 1010 10 16.09344 0 0
7:52 am 07:52 Mostly Cloudy 42 5.6 35 1.7 76 76 SSW 6 9 29.83 1010 10 16.09344 0 0
8:52 am 08:52 Partly Cloudy 45 7.2 34 1.1 66 66 SSW 7 11 29.8 1009 10 16.09344 0 0
9:52 am 09:52 Sunny 48 8.9 33 0.6 56 56 SSW 7 11 29.8 1009 10 16.09344 0 0
10:52 am 10:52 Partly Cloudy 51 10.6 36 2.2 56 56 S 9 15 29.77 1008 10 16.09344 0 0
11:52 am 11:52 Mostly Cloudy 54 12.2 36 2.2 51 51 SSE 8 13 29.74 1007 10 16.09344 0 0
12:52 pm 12:52 Mostly Cloudy 58 14.4 37 2.8 46 46 SSE 7 11 29.74 1007 10 16.09344 0 0
1:52 pm 13:52 Mostly Cloudy 58 14.4 38 3.3 48 48 S 5 7 29.71 1006 10 16.09344 0 0
2:52 pm 14:52 Mostly Cloudy 59 15 37 2.8 44 44 S 5 7 29.71 1006 10 16.09344 0 0
3:52 pm 15:52 Cloudy 60 15.6 38 3.3 44 44 S 5 7 29.74 1007 10 16.09344 0 0
4:52 pm 16:52 Mostly Cloudy 57 13.9 37 2.8 47 47 Calm 29.74 1007 10 16.09344 0 0
5:52 pm 17:52 Mostly Cloudy 52 11.1 39 3.9 61 61 Calm 29.77 1008 10 16.09344 0 0
6:52 pm 18:52 Mostly Cloudy 51 10.6 40 4.4 66 66 SW 3 6 29.8 1009 10 16.09344 0 0
7:52 pm 19:52 Clear 52 11.1 39 3.9 61 61 WSW 5 7 29.8 1009 10 16.09344 0 0
8:52 pm 20:52 Mostly Clear 59 15 36 2.2 42 42 WNW 12 19 29.83 1010 10 16.09344 0 0
9:52 pm 21:52 Mostly Clear 56 13.3 37 2.8 49 49 W 7 11 29.83 1010 10 16.09344 0 0
10:52 pm 22:52 Mostly Cloudy 58 14.4 35 1.7 42 42 WNW 8 13 29.85 1011 10 16.09344 0 0
11:52 pm 23:52 Partly Cloudy 54 12.2 36 2.2 51 51 NNW 9 15 29.85 1011 10 16.09344 0 0

Powered by AerisWeather